Location: Calais Saint-Pierre
(50.9509°N, 1.8522°E)
Time: 11:50:29
(UTC+00:00)

Cosmos 2322 - Pass Details

Date: 15 May 2026
Orbit: 840 x 853 km, 71.0° (Epoch: 9 June)

Event Time Altitude Azimuth Distance (km) Brightness Sun altitude
Rises 21:48:28 0° 331° (NNW) 3,429 8.8 -15.2°
Reaches altitude 10° 21:51:02 10° 337° (NNW) 2,488 7.5 -15.4°
Maximum altitude 21:56:34 49° 52° (NE) 1,083 4.3 -15.8°
Enters shadow 22:00:23 20° 120° (ESE) 1,884 5.0 -16.1°
